Details From KSAN - San Diego Intl
To KPSP - Palm Springs Intl
Flight Number -
Tags generated
Created
Modified
Stats Distance 74 nm / 138 km
Max Altitude 2,500 ft / 762 m
Waypoints 3
Social Downloads 0
Likes 0
Share VATSIM

Download

Looking for another format? Having issues loading an existing format? Contact us
Advertisement - Login to hide

Notes

Basic altitude profile: - Ascent Rate: 2500ft/min - Ascent Speed: 250kts - Cruise Altitude: 18000ft - Cruise Speed: 420kts - Descent Rate: 1500ft/min - Descent Speed: 250kts Options: - Use NATs: yes - Use PACOTS: yes - Use low airways: yes - Use high airways: yes

Route

KSAN HAPPE KPSP

ID Type Via Altitude Latitude Longitude Leg Dist Tot Dist Heading (true) Name
O KSAN APT - 0 ft / 0 m 32.73356˚ -117.18966˚ - 0 nm - San Diego Intl
HAPPE FIX - 2,500 ft / 762 m 33.67163˚ -116.65659˚ 62 nm 62 nm 25° / 26° -
O KPSP APT - 0 ft / 0 m 33.82968˚ -116.50622˚ 12 nm 74 nm 38° / 38° Palm Springs Intl

Altitude Profile

Advertisement - Login to hide

KSAN

Details ICAO KSAN (SAN)
Name San Diego Intl
Region United States
Timezone America/Los_Angeles (UTC-7.0)
Stats Elevation 17 ft / 5 m (AMSL)
Location 32.733556° -117.189658°
Runways 1
Magnetic Variation 11.487° E

METAR

KSAN 242309Z 28009KT 10SM SCT023 OVC036 18/12 A3010 RMK AO2 SCT V BKN T01780117

Decode

TAF

KSAN 242325Z 2500/2606 29009KT P6SM OVC025 FM250300 VRB04KT P6SM OVC025 FM250600 VRB04KT P6SM OVC015 FM251900 29012KT P6SM SCT025 FM260300 VRB04KT P6SM OVC015

Decode

Departure Runways

ID Width Length Bearing (true) Bearing (mag) Surface Threshold Offset Overrun Length
09 200 ft / 61 m 9,387 ft / 2,861 m 106.07° 94.58° Asphalt 699 ft / 213 m 269 ft / 82 m
27 200 ft / 61 m 9,387 ft / 2,861 m 286.08° 274.59° Asphalt 1,811 ft / 552 m 0 ft / 0 m

KPSP

Details ICAO KPSP (PSP)
Name Palm Springs Intl
Region United States
Timezone America/Los_Angeles (UTC-7.0)
Stats Elevation 477 ft / 145 m (AMSL)
Location 33.829677° -116.506218°
Runways 2
Magnetic Variation 11.541° E

METAR

KPSP 242253Z 29014G22KT 10SM CLR 33/10 A2989 RMK AO2 SLP119 T03280100

Decode

TAF

KPSP 242325Z 2500/2524 32015G25KT P6SM SKC FM250600 33010KT P6SM SKC FM251000 VRB06KT P6SM SKC FM251700 31015G25KT P6SM SKC

Decode

Destination Runways

ID Width Length Bearing (true) Bearing (mag) Surface Threshold Offset Overrun Length
13L 75 ft / 23 m 4,958 ft / 1,511 m 143.52° 131.98° Asphalt 0 ft / 0 m 151 ft / 46 m
13R 151 ft / 46 m 10,012 ft / 3,052 m 143.52° 131.98° Asphalt 2,999 ft / 914 m 200 ft / 61 m
31L 151 ft / 46 m 10,012 ft / 3,052 m 323.53° 311.99° Asphalt 1,499 ft / 457 m 200 ft / 61 m
31R 75 ft / 23 m 4,958 ft / 1,511 m 323.53° 311.99° Asphalt 0 ft / 0 m 151 ft / 46 m

Popular Alternatives